EHI
0 0 0 0 0 0 0 0 0 0 0 0 0 0 1 2 1 0 0 4 11 14 12 12 13 12 8 3 0 0 0 1 2 2 1 1 1 1 0 0 0 0 0 0 0 0 0 0 0
0 0 0 0 0 0 0 0 0 0 0 0 0 1 1 2 2 1 1 5 11 12 10 11 13 12 8 3 1 0 0 0 1 1 1 2 2 2 1 0 0 0 0 0 0 0 0 0 0
0 0 0 0 0 0 0 0 0 0 0 0 0 1 2 3 2 1 2 6 10 9 7 9 13 12 8 4 1 0 0 0 0 0 1 1 2 2 1 0 0 0 0 0 0 0 0 0 0
0 0 0 0 0 0 0 0 0 0 0 0 0 1 2 2 1 1 3 6 8 8 6 7 11 11 9 5 1 0 0 0 0 0 0 1 1 1 0 0 0 0 0 0 0 0 0 0 0
0 0 0 0 0 0 0 0 0 0 0 0 0 0 1 1 0 1 3 5 7 7 6 5 7 8 8 5 1 0 0 0 0 0 0 0 0 0 0 0 0 0 0 0 0 0 0 0 0
0 0 0 0 0 0 0 0 0 0 0 0 0 0 0 0 0 1 3 5 5 6 6 4 4 5 5 4 1 0 0 0 0 0 0 0 0 0 0 0 0 0 0 0 0 1 0 0 0
0 0 0 0 0 0 0 0 0 0 0 0 0 0 0 0 0 1 4 4 3 4 4 3 3 3 3 2 1 1 1 2 1 0 0 0 0 0 0 0 0 0 0 0 0 0 0 0 0
0 0 0 0 0 0 0 0 0 0 0 0 0 0 0 0 0 2 4 4 2 2 2 2 2 3 2 1 1 2 2 2 1 0 0 0 0 0 0 0 0 0 0 0 0 0 0 0 0
0 0 0 0 0 0 0 0 0 0 0 0 0 0 0 0 1 3 5 4 2 1 1 1 2 2 1 0 1 2 3 1 1 0 0 0 0 0 0 0 0 0 0 0 0 0 0 0 0
0 0 0 0 0 0 0 0 0 0 0 0 0 0 0 1 2 4 5 5 4 1 0 0 1 1 0 0 1 2 2 1 0 0 0 0 0 0 0 0 0 0 0 0 0 0 0 0 0
0 0 0 0 0 0 0 0 0 0 0 0 0 0 1 2 3 3 4 5 5 2 0 0 0 0 0 0 1 1 1 0 0 0 0 0 0 0 0 0 0 0 0 0 0 0 0 0 0
0 0 0 0 0 0 0 0 0 0 0 0 0 0 1 2 2 1 2 4 4 2 0 0 0 0 0 0 0 0 0 0 0 0 0 0 0 0 0 0 0 0 0 0 0 0 0 0 0
0 0 0 0 0 0 0 0 0 0 0 0 0 0 1 1 1 0 1 2 3 2 1 0 1 1 0 0 0 0 0 0 0 0 0 0 0 0 0 0 0 0 0 0 0 0 0 0 0
0 0 0 0 0 0 0 0 0 0 0 0 0 0 0 0 0 0 0 1 3 3 2 1 1 0 0 0 1 0 0 0 0 1 1 2 1 1 1 0 0 0 0 0 0 0 0 0 0
0 0 0 0 0 0 0 0 0 0 0 0 0 0 0 0 0 0 0 1 2 3 3 2 1 0 0 0 0 0 0 0 0 1 2 3 3 2 2 1 0 0 0 0 0 0 0 0 0
0 0 0 0 0 0 0 0 0 0 0 0 0 0 0 0 0 0 0 0 1 3 3 2 1 0 0 0 0 0 0 0 0 1 2 3 3 3 3 1 1 0 0 0 0 0 0 0 0
0 0 0 0 0 0 0 0 0 0 0 0 0 0 0 0 0 0 0 0 1 2 2 1 0 0 0 0 0 0 0 0 0 0 1 2 3 3 3 3 2 1 0 0 0 0 0 0 0
0 0 0 0 0 0 0 0 0 0 0 0 0 0 0 0 0 0 0 0 0 1 1 1 0 0 0 0 0 0 0 0 0 0 0 1 2 3 3 3 3 1 0 0 0 0 0 0 0
0 0 0 0 0 0 0 0 0 0 0 0 0 0 0 0 0 0 0 0 0 0 0 0 0 0 0 0 0 0 0 0 0 0 0 0 1 2 3 3 3 2 1 0 0 0 0 0 0
0 0 0 0 0 0 0 0 0 0 0 0 0 0 0 0 0 0 0 0 0 0 0 0 0 0 0 0 0 0 0 0 0 0 0 0 0 1 2 3 3 2 1 0 0 0 0 0 0
0 0 0 0 0 0 0 0 0 0 0 0 0 0 0 0 0 0 0 0 0 0 0 0 0 0 0 0 0 0 0 0 0 0 0 0 0 0 2 3 2 1 0 0 0 0 0 0 0
0 0 0 0 0 0 0 0 0 0 0 0 0 0 0 0 0 0 0 0 0 0 0 0 0 0 0 0 0 0 0 0 0 0 0 0 0 0 2 2 2 2 1 0 0 0 0 0 0
0 0 0 0 0 0 0 0 0 0 0 0 0 0 0 0 0 0 0 0 0 0 0 0 0 0 0 0 0 0 0 0 0 0 0 0 0 0 1 2 2 2 1 0 0 0 0 0 0
0 0 0 0 0 0 0 0 0 0 0 0 0 0 0 0 0 0 0 0 0 0 0 0 0 0 0 0 0 0 0 0 0 0 0 0 0 0 0 1 1 1 0 0 0 0 0 0 0
0 0 0 0 0 0 0 0 0 0 0 0 0 0 0 0 0 0 0 0 0 0 0 0 0 0 0 0 0 0 0 0 0 0 0 0 0 0 0 0 0 0 0 0 0 0 0 0 0
0 0 0 0 0 0 0 0 0 0 0 0 0 0 0 0 0 0 0 0 0 0 0 0 0 0 0 0 0 0 0 0 0 0 0 0 0 0 0 0 0 0 0 0 0 0 0 0 0
0 0 0 0 0 0 0 0 0 0 0 0 0 0 0 0 0 0 0 0 0 0 0 0 0 0 0 0 0 0 0 0 0 0 0 0 0 0 0 0 0 0 0 0 0 0 0 0 0
0 0 0 0 0 0 0 0 0 0 0 0 0 0 0 0 0 0 0 0 0 0 0 0 0 0 0 0 0 0 0 0 0 0 0 0 0 0 0 0 0 0 0 0 0 0 0 0 0
0 0 0 0 0 0 0 0 0 0 0 0 0 0 0 0 0 0 0 0 0 0 0 0 0 0 0 0 0 0 0 0 0 0 0 0 0 0 0 0 0 0 0 0 0 0 0 0 0
0 0 0 0 0 0 0 0 0 0 0 0 0 0 0 0 0 0 0 0 0 0 0 0 0 0 0 0 0 0 0 0 0 0 0 0 0 0 0 0 0 0 0 0 0 0 0 0 0
Wind_Speed
13 10 5 2 2 3 4 2 1 3 3 4 5 5 6 6 6 7 3 6 6 5 4 4 8 9 10 10 10 11 11 10 10 10 10 10 10 9 9 10 9 10 10 11 11 11 11 11 11
10 7 3 3 3 4 3 3 3 4 4 3 4 5 6 7 7 7 4 5 5 5 4 4 8 9 9 10 10 10 10 10 10 10 10 10 10 10 9 9 9 10 10 10 10 10 10 10 10
10 6 3 3 3 2 1 4 7 6 4 3 3 6 5 5 6 4 4 4 5 5 4 5 8 9 9 9 9 10 10 10 10 10 10 10 10 10 10 9 9 9 9 9 9 9 9 9 9
4 3 3 3 3 2 1 4 5 4 4 3 4 6 5 7 5 5 5 5 6 6 5 5 9 9 9 9 9 9 10 10 10 10 10 10 10 10 10 10 9 9 9 9 8 9 9 8 7
3 3 3 3 3 0 3 4 2 2 3 3 4 5 6 6 7 7 6 6 6 6 6 6 9 9 9 9 9 9 10 10 10 10 10 9 10 9 9 9 9 9 9 8 8 8 8 7 7
3 3 4 4 3 2 2 2 1 3 3 4 3 4 6 5 7 5 5 6 6 7 6 6 10 10 10 9 9 9 9 10 10 10 10 10 9 9 9 9 9 8 8 8 8 8 7 6 6
3 3 4 2 3 3 2 2 2 2 2 3 3 3 5 5 5 4 4 5 6 7 6 5 5 7 9 9 9 8 9 9 10 10 9 9 9 8 8 9 8 8 8 8 8 8 7 6 5
3 3 3 2 3 2 2 2 4 4 4 5 5 2 4 3 3 3 4 5 6 7 6 5 5 5 5 4 8 8 9 9 10 10 10 9 8 7 8 7 8 8 8 7 7 7 7 5 5
3 2 1 2 1 2 3 2 3 4 3 3 4 5 5 5 4 4 4 5 5 6 5 5 5 4 4 4 5 6 7 8 8 8 9 7 3 3 4 6 8 8 8 7 6 6 6 5 4
2 0 1 4 4 2 2 2 1 2 2 2 3 5 5 4 3 4 4 4 4 5 5 5 5 4 4 3 3 2 3 3 4 3 4 3 3 3 5 6 7 7 8 7 5 5 4 3 1
2 1 2 5 5 3 1 1 1 2 1 1 2 3 3 3 3 3 3 3 3 3 4 4 4 4 4 3 2 2 1 1 2 3 3 3 3 3 3 2 3 3 4 3 3 2 2 1 1
1 2 3 3 4 2 1 1 1 2 1 2 2 3 3 2 2 2 2 2 2 3 3 4 4 4 4 3 2 2 2 2 1 2 3 3 2 2 2 2 2 2 2 2 2 2 2 2 1
1 1 2 2 2 2 1 1 1 1 1 2 2 2 3 2 1 2 2 2 3 3 3 3 4 4 3 3 2 2 2 2 2 2 2 3 2 2 2 1 1 2 2 2 2 2 2 2 2
2 2 1 1 1 1 1 3 3 4 2 2 2 2 2 2 1 1 1 1 2 2 2 2 3 3 3 3 3 2 2 2 2 2 3 3 2 2 2 2 2 2 2 2 2 3 2 2 1
2 1 2 3 3 2 2 4 6 4 3 3 3 3 3 2 2 1 1 0 1 1 1 2 2 3 3 3 3 2 2 2 2 2 2 3 3 2 2 2 2 2 2 2 2 2 2 2 2
3 3 3 3 4 3 3 6 3 4 4 4 4 4 3 3 3 2 1 1 1 0 1 1 2 3 3 3 2 2 2 2 2 2 2 2 3 3 2 2 2 2 2 2 2 2 2 2 2
3 4 4 3 4 3 5 5 3 4 5 5 5 4 4 3 3 2 2 2 1 1 1 1 2 2 3 2 2 2 2 2 2 2 2 2 2 3 2 2 2 2 2 2 3 2 2 2 2
3 4 4 4 4 3 6 7 5 5 6 5 4 4 4 4 3 2 2 2 2 2 2 2 2 2 2 1 2 2 2 2 2 1 1 1 1 2 2 2 2 2 2 2 2 3 2 2 2
5 5 7 5 2 4 7 9 7 6 6 6 5 4 4 4 3 2 2 2 2 2 2 2 2 1 1 1 1 1 1 2 2 2 2 2 1 1 1 2 2 2 2 2 3 2 2 2 2
6 7 7 5 2 5 7 10 8 6 6 5 4 4 4 3 2 1 1 2 2 2 2 2 2 1 0 0 0 1 1 1 1 1 2 3 2 1 2 1 1 2 1 2 2 3 2 2 1
5 5 6 6 6 6 6 9 6 4 4 4 3 3 3 3 3 2 2 3 3 3 3 2 2 1 1 1 1 1 1 1 2 2 2 2 3 2 1 2 1 2 1 1 2 2 2 2 2
5 3 5 6 5 5 4 7 5 5 5 5 5 4 4 3 2 2 2 2 2 3 3 3 2 2 1 1 1 0 1 1 2 2 2 3 3 2 1 1 2 2 2 2 2 2 2 2 2
3 5 6 7 6 7 6 6 6 4 5 6 5 4 3 3 2 2 2 2 1 2 3 3 2 2 2 1 1 1 1 1 1 2 2 3 3 2 2 1 1 1 2 2 2 2 3 2 2
3 4 5 5 3 7 7 6 7 4 5 5 5 4 3 2 2 2 1 1 1 2 3 3 3 2 2 1 1 1 1 1 2 2 2 2 2 2 3 2 1 2 2 2 2 2 3 3 3
2 2 2 2 3 6 1 4 7 2 2 3 4 4 3 2 2 1 1 1 2 2 3 3 3 2 2 2 2 2 2 2 2 2 2 2 2 2 3 3 2 2 2 2 2 3 3 3 4
3 2 2 4 4 4 2 6 5 3 3 1 1 2 2 2 1 1 1 2 2 2 3 3 3 3 2 2 2 2 2 2 2 2 2 2 2 2 3 3 3 3 3 3 3 3 4 3 4
2 3 1 2 5 5 6 5 2 1 1 1 2 2 2 2 1 1 1 2 2 2 3 3 3 2 2 2 2 2 2 2 2 3 2 2 2 3 3 3 3 3 3 3 3 3 4 4 4
2 1 1 2 4 6 6 5 4 3 4 3 2 3 2 2 1 1 1 2 2 2 2 2 2 3 2 2 2 2 2 2 2 3 3 3 3 3 3 3 4 3 3 3 3 3 4 4 4
3 2 3 3 3 4 5 6 1 2 4 4 4 3 2 2 2 2 2 2 2 1 1 2 2 2 2 2 2 2 2 2 3 3 3 3 3 3 3 3 4 4 4 3 3 4 4 5 5
3 3 4 3 5 4 4 8 1 1 1 3 3 2 2 2 2 1 1 1 1 1 1 1 2 2 2 2 2 2 3 3 3 3 3 3 4 3 4 3 4 4 4 3 4 4 4 5 5
Wind_Direction
304 283 265 260 239 230 230 237 74 72 55 39 28 50 58 45 36 96 81 36 47 60 69 60 42 46 47 48 47 47 44 46 49 52 54 54 55 57 60 58 55 58 58 59 63 68 68 67 67
298 290 271 242 237 226 206 184 98 69 89 74 41 50 68 67 58 84 52 17 44 64 76 68 51 51 50 49 48 48 46 46 49 51 53 53 55 57 59 59 56 57 58 60 63 68 71 69 66
284 271 259 238 239 253 155 91 92 84 89 81 70 45 49 59 57 62 41 25 52 65 76 68 57 56 54 50 49 48 46 46 47 49 52 53 56 56 57 59 57 59 57 59 62 67 70 71 68
286 251 245 256 243 306 48 87 92 115 84 66 96 90 78 48 48 57 55 45 57 60 63 67 56 56 53 50 49 49 48 47 47 48 50 53 54 56 55 54 53 55 57 59 63 64 67 68 67
254 257 230 223 233 2 67 80 93 98 101 68 71 105 97 65 59 62 62 52 53 55 55 55 47 49 51 49 46 48 49 48 48 48 49 51 53 54 55 53 52 53 52 54 57 60 62 63 64
268 254 239 217 192 156 96 72 82 76 88 76 66 100 104 77 60 58 60 59 55 55 55 52 37 40 41 42 43 46 47 46 47 47 47 48 49 52 53 52 50 52 48 49 54 56 59 60 61
291 269 262 239 194 176 130 67 62 87 80 54 21 92 112 71 58 66 65 66 59 56 54 47 39 35 31 33 34 42 46 45 45 45 43 42 43 45 50 47 46 47 49 48 51 52 52 52 52
315 293 260 235 219 156 88 57 34 40 52 27 23 75 100 72 58 74 71 64 59 55 49 42 34 32 23 21 32 36 43 43 44 44 38 37 38 40 44 40 39 43 45 46 48 48 47 44 38
301 260 264 320 276 118 99 71 35 54 67 48 50 55 72 85 67 68 63 53 50 50 41 37 29 26 19 18 34 38 43 41 46 46 38 36 39 43 42 36 36 38 40 42 44 44 47 41 21
339 241 24 3 10 76 98 76 79 128 110 71 54 71 80 75 71 69 65 62 52 46 37 31 24 20 19 21 32 38 51 51 50 52 41 21 24 28 39 30 34 34 35 37 36 35 48 35 347
34 68 63 26 29 49 69 75 316 214 217 165 166 117 95 74 57 60 67 57 68 64 44 29 20 19 22 19 18 23 37 42 52 40 29 19 30 38 40 29 29 29 33 30 14 8 342 347 344
89 35 39 36 26 28 19 11 333 327 356 62 106 128 125 112 77 60 62 58 46 58 45 29 22 18 20 17 10 26 24 26 38 21 30 30 29 30 27 20 7 4 11 6 343 322 339 343 335
168 162 80 62 43 23 17 286 298 281 121 87 96 124 143 152 108 67 43 70 49 45 38 30 28 18 13 15 11 26 20 24 16 31 30 28 24 22 12 5 6 358 5 354 329 325 333 325 334
108 109 134 180 215 236 233 261 247 232 172 162 159 195 172 169 136 110 44 46 41 31 41 28 33 22 11 13 12 16 15 18 18 31 27 28 21 14 4 354 1 4 354 334 320 328 330 322 326
166 212 228 211 217 195 234 252 228 203 179 195 199 213 190 174 157 163 116 52 86 18 50 27 29 29 19 15 13 18 16 18 14 12 27 29 21 12 5 349 357 354 340 333 327 336 339 341 340
229 226 231 189 199 183 221 252 199 174 185 206 212 218 204 191 174 172 162 178 173 186 113 65 29 29 20 5 10 21 18 17 5 1 21 24 13 5 6 358 346 344 342 339 332 347 343 331 328
216 242 233 212 204 195 224 255 187 186 200 213 220 220 206 197 191 181 169 176 195 190 163 106 70 43 17 357 18 30 19 22 8 7 13 11 6 5 7 349 339 344 344 337 331 342 327 319 326
238 254 262 237 203 236 246 254 223 212 221 224 224 221 207 200 209 187 166 175 191 194 166 126 87 53 16 6 32 27 23 8 2 2 359 358 5 8 7 345 339 343 339 335 335 328 327 321 310
284 284 280 281 263 260 252 257 239 221 219 221 217 214 208 208 208 170 164 177 194 202 176 136 108 68 27 27 33 15 358 341 349 354 355 350 356 359 8 349 339 340 333 326 326 324 317 323 327
275 277 283 283 272 271 266 264 246 219 209 207 205 206 202 202 209 184 178 197 208 207 176 142 119 94 29 66 25 269 284 296 323 341 355 349 336 345 341 345 326 327 322 321 325 336 320 312 325
271 267 283 290 297 264 269 271 227 200 195 200 207 197 205 209 213 215 221 222 203 203 178 158 143 156 213 91 69 348 352 343 355 355 344 336 329 325 327 321 317 313 318 299 313 312 309 297 296
273 306 292 291 284 268 224 275 240 197 200 203 209 206 211 219 224 225 231 237 204 195 168 160 155 176 180 117 97 331 328 310 311 314 311 313 310 319 292 287 300 305 298 292 299 312 307 283 277
276 307 286 275 271 278 239 247 265 175 206 212 207 203 207 208 212 226 242 249 215 184 162 165 168 180 168 156 178 212 272 295 303 309 307 310 315 315 297 269 272 279 288 293 295 306 304 285 273
279 288 273 255 253 261 230 219 264 211 210 199 195 194 203 204 205 221 242 264 232 195 162 166 178 176 176 190 212 216 236 266 281 291 292 301 306 305 300 276 262 263 266 274 281 280 285 285 278
285 309 312 279 236 248 215 226 249 189 139 167 191 200 204 197 201 221 269 270 250 216 179 184 180 187 195 210 220 231 237 248 253 265 276 292 296 297 297 292 272 273 275 279 277 267 269 272 274
251 241 221 254 267 288 266 238 240 138 122 115 172 184 196 209 208 232 263 279 264 225 197 191 189 198 202 221 235 241 243 242 250 263 267 271 274 282 295 305 277 270 272 279 279 273 266 264 265
250 237 258 267 278 274 253 246 262 132 182 198 192 190 211 218 223 249 282 301 278 244 216 197 197 207 211 222 238 245 252 253 261 264 265 266 275 287 291 294 283 270 267 267 271 274 271 265 262
275 303 213 215 264 271 271 250 249 230 233 220 202 209 229 233 239 271 295 292 279 249 223 197 202 212 222 224 236 264 259 260 261 263 264 268 273 281 280 286 286 276 270 270 274 276 271 272 267
207 228 231 246 242 254 280 271 270 204 197 199 206 209 226 234 236 249 269 271 276 262 228 203 216 221 229 237 245 261 268 270 267 261 259 264 269 269 270 278 280 276 275 268 262 268 276 271 270
217 218 193 207 254 240 262 271 292 85 174 183 196 223 228 226 230 244 272 273 279 284 263 229 227 232 235 236 250 260 267 270 271 269 266 265 269 270 268 272 273 271 275 274 268 269 274 271 270